,,PA_Meas_PMT16A,,PR_Meas_QMR101_102,,RH_Meas_QMH101,,SR_Meas_QMS101,,TA_Meas_QMH101,,GenWind,,GenWind,
time,status,PA,status,PR,status,RH,status,SR,status,TA,status,DirAvg,status,SpdAvg,
2011-01-03, 00:00:04,VALID,916.368,VALID,0,VALID,95.9331,VALID,0,VALID,20.6585,VALID,10,VALID,0.689453,
2011-01-03, 00:01:04,VALID,916.318,VALID,0,VALID,95.9026,VALID,0,VALID,20.6585,VALID,10,VALID,0.760938,
2011-01-03, 00:02:04,VALID,916.326,VALID,0,VALID,95.8568,VALID,0,VALID,20.6374,VALID,10,VALID,0.787891,
2011-01-03, 00:03:04,VALID,916.28,VALID,0,VALID,95.8187,VALID,0,VALID,20.5984,VALID,10,VALID,0.348437,
2011-01-03, 00:04:04,VALID,916.295,VALID,0,VALID,95.7654,VALID,0,VALID,20.5789,VALID,10,VALID,0.267969,
2011-01-03, 00:05:04,VALID,916.292,VALID,0,VALID,95.8263,VALID,0,VALID,20.5999,VALID,10,VALID,0.457422,
2011-01-03, 00:06:04,VALID,916.286,VALID,0,VALID,95.8873,VALID,0.107441,VALID,20.5789,VALID,10,VALID,0.0363281,
2011-01-03, 00:07:04,VALID,916.262,VALID,0,VALID,95.9559,VALID,0,VALID,20.5594,VALID,10,VALID,0.109766,
2011-01-03, 00:08:04,VALID,916.242,VALID,0,VALID,95.9864,VALID,0,VALID,20.5594,VALID,10,VALID,0.239063,
2011-01-03, 00:09:04,VALID,916.191,VALID,0,VALID,96.0398,VALID,0,VALID,20.5789,VALID,10,VALID,0.302344,
2011-01-03, 00:10:04,VALID,916.169,VALID,0,VALID,96.0169,VALID,0,VALID,20.5789,VALID,10,VALID,0.466406,
2011-01-03, 00:11:04,VALID,916.157,VALID,0,VALID,96.0627,VALID,0,VALID,20.5789,VALID,10,VALID,0.671484,
2011-01-03, 00:12:04,VALID,916.185,VALID,0,VALID,96.0779,VALID,0,VALID,20.5789,VALID,10,VALID,0.404297,
2011-01-03, 00:13:04,VALID,916.177,VALID,0,VALID,95.9864,VALID,0,VALID,20.5609,VALID,10,VALID,0.480859,
2011-01-03, 00:14:04,VALID,916.174,VALID,0,VALID,96.0474,VALID,0,VALID,20.5399,VALID,10,VALID,0.104687,
2011-01-03, 00:15:04,VALID,916.15,VALID,0,VALID,96.0932,VALID,0,VALID,20.5594,VALID,10,VALID,0,
2011-01-03, 00:16:04,VALID,916.181,VALID,0,VALID,96.1313,VALID,0,VALID,20.5594,VALID,10,VALID,0,
2011-01-03, 00:17:04,VALID,916.171,VALID,0,VALID,96.1084,VALID,0.107441,VALID,20.5383,VALID,10,VALID,0.00351562,
2011-01-03, 00:18:04,VALID,916.144,VALID,0,VALID,96.1008,VALID,0,VALID,20.5594,VALID,10,VALID,0.219922,
2011-01-03, 00:19:04,VALID,916.156,VALID,0,VALID,96.1313,VALID,0.107441,VALID,20.5594,VALID,10,VALID,0,
2011-01-03, 00:20:04,VALID,916.164,VALID,0,VALID,96.1389,VALID,0,VALID,20.5594,VALID,10,VALID,0.219922,
2011-01-03, 00:21:04,VALID,916.146,VALID,0,VALID,96.1389,VALID,0,VALID,20.5399,VALID,10,VALID,0.239844,
2011-01-03, 00:22:04,VALID,916.145,VALID,0,VALID,96.1923,VALID,0,VALID,20.5399,VALID,10,VALID,0.641406,
2011-01-03, 00:23:04,VALID,916.085,VALID,0,VALID,96.1923,VALID,0,VALID,20.5399,VALID,10,VALID,0.440625,
2011-01-03, 00:24:04,VALID,916.125,VALID,0,VALID,96.2075,VALID,0,VALID,20.5399,VALID,10,VALID,0.134766,
2011-01-03, 00:25:04,VALID,916.148,VALID,0,VALID,96.238,VALID,0,VALID,20.5399,VALID,10,VALID,0,
2011-01-03, 00:26:04,VALID,916.17,VALID,0,VALID,96.177,VALID,0,VALID,20.5399,VALID,10,VALID,0.739453,
2011-01-03, 00:27:04,VALID,916.145,VALID,0,VALID,96.1313,VALID,0,VALID,20.5009,VALID,10,VALID,0.123438,
2011-01-03, 00:28:04,VALID,916.187,VALID,0,VALID,96.177,VALID,0,VALID,20.4603,VALID,10,VALID,0.636719,
2011-01-03, 00:29:04,VALID,916.187,VALID,0,VALID,96.1846,VALID,0,VALID,20.4618,VALID,10,VALID,0.853906,
2011-01-03, 00:30:04,VALID,916.161,VALID,0,VALID,96.2304,VALID,0,VALID,20.4423,VALID,10,VALID,0.819531,
2011-01-03, 00:31:04,VALID,916.144,VALID,0,VALID,96.238,VALID,0,VALID,20.4423,VALID,10,VALID,0.891016,
2011-01-03, 00:32:04,VALID,916.16,VALID,0,VALID,96.2609,VALID,0,VALID,20.4618,VALID,10,VALID,0.646094,
2011-01-03, 00:33:04,VALID,916.186,VALID,0,VALID,96.2761,VALID,0,VALID,20.4618,VALID,10,VALID,0.726172,
2011-01-03, 00:34:04,VALID,916.162,VALID,0,VALID,96.177,VALID,0,VALID,20.4228,VALID,10,VALID,1.23477,
2011-01-03, 00:35:04,VALID,916.163,VALID,0,VALID,96.2533,VALID,0,VALID,20.4018,VALID,10,VALID,0.967188,
2011-01-03, 00:36:04,VALID,916.19,VALID,0,VALID,96.2685,VALID,0,VALID,20.4228,VALID,10,VALID,0.838672,
2011-01-03, 00:37:04,VALID,916.201,VALID,0,VALID,96.2304,VALID,0,VALID,20.4033,VALID,10,VALID,0.914453,
2011-01-03, 00:38:04,VALID,916.184,VALID,0,VALID,96.1999,VALID,0,VALID,20.3643,VALID,10,VALID,0.937891,
2011-01-03, 00:39:04,VALID,916.183,VALID,0,VALID,96.2761,VALID,0.107441,VALID,20.3238,VALID,10,VALID,0.587109,
2011-01-03, 00:40:04,VALID,916.15,VALID,0,VALID,96.3752,VALID,0,VALID,20.3643,VALID,10,VALID,0.794922,
2011-01-03, 00:41:04,VALID,916.137,VALID,0,VALID,96.3371,VALID,0,VALID,20.3643,VALID,10,VALID,1.02578,
2011-01-03, 00:42:04,VALID,916.158,VALID,0,VALID,96.3447,VALID,0.107441,VALID,20.3253,VALID,10,VALID,0.374219,
2011-01-03, 00:43:04,VALID,916.197,VALID,0,VALID,96.3447,VALID,0,VALID,20.3253,VALID,10,VALID,0.648047,
2011-01-03, 00:44:04,VALID,916.159,VALID,0,VALID,96.3219,VALID,0,VALID,20.2653,VALID,9,VALID,0.537891,
2011-01-03, 00:45:04,VALID,916.181,VALID,0,VALID,96.3905,VALID,0,VALID,20.2653,VALID,10,VALID,0.614844,
2011-01-03, 00:46:04,VALID,916.142,VALID,0,VALID,96.421,VALID,0,VALID,20.2653,VALID,10,VALID,0.653125,
2011-01-03, 00:47:04,VALID,916.149,VALID,0,VALID,96.4438,VALID,0,VALID,20.2863,VALID,10,VALID,0.448828,
2011-01-03, 00:48:04,VALID,916.17,VALID,0,VALID,96.4667,VALID,0.107441,VALID,20.3058,VALID,10,VALID,0.587891,
2011-01-03, 00:49:04,VALID,916.169,VALID,0,VALID,96.4667,VALID,0,VALID,20.2863,VALID,10,VALID,0.696875,
2011-01-03, 00:50:04,VALID,916.164,VALID,0,VALID,96.4591,VALID,0,VALID,20.2863,VALID,10,VALID,0.526563,
2011-01-03, 00:51:04,VALID,916.186,VALID,0,VALID,96.5048,VALID,0,VALID,20.2863,VALID,10,VALID,0.422266,
2011-01-03, 00:52:04,VALID,916.217,VALID,0,VALID,96.5201,VALID,0,VALID,20.2863,VALID,10,VALID,0.338672,
2011-01-03, 00:53:04,VALID,916.202,VALID,0,VALID,96.5506,VALID,0,VALID,20.3253,VALID,9,VALID,0.328516,
2011-01-03, 00:54:04,VALID,916.201,VALID,0,VALID,96.5506,VALID,0,VALID,20.3253,VALID,10,VALID,0.0988281,
2011-01-03, 00:55:04,VALID,916.204,VALID,0,VALID,96.5429,VALID,0,VALID,20.3253,VALID,10,VALID,0.171875,
2011-01-03, 00:56:04,VALID,916.199,VALID,0,VALID,96.5658,VALID,0.107441,VALID,20.3253,VALID,10,VALID,0.183203,
2011-01-03, 00:57:04,VALID,916.215,VALID,0,VALID,96.5658,VALID,0.107441,VALID,20.3448,VALID,10,VALID,0,
2011-01-03, 00:58:04,VALID,916.213,VALID,0,VALID,96.5582,VALID,0.107441,VALID,20.3448,VALID,10,VALID,0,
2011-01-03, 00:59:04,VALID,916.185,VALID,0,VALID,96.5353,VALID,0,VALID,20.3253,VALID,10,VALID,0,
2011-01-03, 01:00:04,VALID,916.171,VALID,0,VALID,96.5277,VALID,0,VALID,20.3253,VALID,10,VALID,0.167969,
2011-01-03, 01:01:04,VALID,916.176,VALID,0,VALID,96.5429,VALID,0,VALID,20.3043,VALID,10,VALID,0.418359,
2011-01-03, 01:02:04,VALID,916.156,VALID,0,VALID,96.5277,VALID,0,VALID,20.3058,VALID,10,VALID,0.448438,
2011-01-03, 01:03:04,VALID,916.129,VALID,0,VALID,96.5506,VALID,0,VALID,20.2848,VALID,10,VALID,0.410937,
2011-01-03, 01:04:04,VALID,916.114,VALID,0,VALID,96.5201,VALID,0,VALID,20.2863,VALID,10,VALID,0.446094,
2011-01-03, 01:05:04,VALID,916.111,VALID,0,VALID,96.5734,VALID,0.107441,VALID,20.2863,VALID,10,VALID,0.168359,
2011-01-03, 01:06:04,VALID,916.134,VALID,0,VALID,96.6039,VALID,0.107441,VALID,20.2863,VALID,10,VALID,0.277344,
2011-01-03, 01:07:04,VALID,916.143,VALID,0,VALID,96.5963,VALID,0,VALID,20.2863,VALID,10,VALID,0.398828,
2011-01-03, 01:08:04,VALID,916.121,VALID,0,VALID,96.5963,VALID,0,VALID,20.2863,VALID,9,VALID,0,
2011-01-03, 01:09:04,VALID,916.09,VALID,0,VALID,96.5811,VALID,0,VALID,20.2863,VALID,10,VALID,0.276953,
2011-01-03, 01:10:04,VALID,916.06,VALID,0,VALID,96.5658,VALID,0,VALID,20.2863,VALID,10,VALID,0,
2011-01-03, 01:11:04,VALID,916.008,VALID,0,VALID,96.5658,VALID,0,VALID,20.2879,VALID,10,VALID,0,
2011-01-03, 01:12:04,VALID,915.996,VALID,0,VALID,96.5811,VALID,0,VALID,20.2668,VALID,10,VALID,0,
2011-01-03, 01:13:04,VALID,915.982,VALID,0,VALID,96.6115,VALID,0,VALID,20.2668,VALID,10,VALID,0,
2011-01-03, 01:14:04,VALID,915.954,VALID,0,VALID,96.5963,VALID,0,VALID,20.2863,VALID,10,VALID,0,
2011-01-03, 01:15:04,VALID,915.961,VALID,0,VALID,96.6039,VALID,0,VALID,20.2668,VALID,10,VALID,0,
2011-01-03, 01:16:04,VALID,915.959,VALID,0,VALID,96.5734,VALID,0.107441,VALID,20.2879,VALID,10,VALID,0,
2011-01-03, 01:17:04,VALID,915.943,VALID,0,VALID,96.5582,VALID,0,VALID,20.2668,VALID,10,VALID,0.624609,
2011-01-03, 01:18:04,VALID,915.896,VALID,0,VALID,96.5124,VALID,0,VALID,20.2684,VALID,10,VALID,0.607031,
2011-01-03, 01:19:04,VALID,915.904,VALID,0,VALID,96.5048,VALID,0,VALID,20.2083,VALID,10,VALID,0.486719,
2011-01-03, 01:20:04,VALID,915.896,VALID,0,VALID,96.4057,VALID,0,VALID,20.1498,VALID,10,VALID,0.398438,
2011-01-03, 01:21:04,VALID,915.898,VALID,0,VALID,96.4286,VALID,0,VALID,20.1513,VALID,10,VALID,0.290625,
2011-01-03, 01:22:04,VALID,915.879,VALID,0,VALID,96.4591,VALID,0,VALID,20.1108,VALID,10,VALID,0,
2011-01-03, 01:23:04,VALID,915.855,VALID,0,VALID,96.4896,VALID,0,VALID,20.1108,VALID,10,VALID,0,
2011-01-03, 01:24:04,VALID,915.841,VALID,0,VALID,96.5048,VALID,0,VALID,20.1513,VALID,10,VALID,0,
2011-01-03, 01:25:04,VALID,915.795,VALID,0,VALID,96.4896,VALID,0,VALID,20.1108,VALID,10,VALID,0.227344,
2011-01-03, 01:26:04,VALID,915.775,VALID,0,VALID,96.5124,VALID,0,VALID,20.1123,VALID,10,VALID,0.0441406,
2011-01-03, 01:27:04,VALID,915.797,VALID,0,VALID,96.4438,VALID,0,VALID,20.0733,VALID,10,VALID,0,
2011-01-03, 01:28:04,VALID,915.746,VALID,0,VALID,96.4591,VALID,0,VALID,20.0133,VALID,10,VALID,0,
2011-01-03, 01:29:04,VALID,915.734,VALID,0,VALID,96.4896,VALID,0,VALID,20.0343,VALID,10,VALID,0,
2011-01-03, 01:30:04,VALID,915.773,VALID,0,VALID,96.5353,VALID,0,VALID,20.0328,VALID,10,VALID,0.106641,
2011-01-03, 01:31:04,VALID,915.738,VALID,0,VALID,96.5277,VALID,0,VALID,20.0133,VALID,10,VALID,0.305078,
2011-01-03, 01:32:04,VALID,915.717,VALID,0,VALID,96.5048,VALID,0,VALID,19.9548,VALID,10,VALID,0.460547,
2011-01-03, 01:33:04,VALID,915.721,VALID,0,VALID,96.4896,VALID,0,VALID,19.9548,VALID,10,VALID,0.422656,
2011-01-03, 01:34:04,VALID,915.681,VALID,0,VALID,96.5124,VALID,0,VALID,19.9158,VALID,10,VALID,0.391797,
2011-01-03, 01:35:04,VALID,915.672,VALID,0,VALID,96.5201,VALID,0,VALID,19.9173,VALID,10,VALID,0.489844,
2011-01-03, 01:36:04,VALID,915.611,VALID,0,VALID,96.5124,VALID,0,VALID,19.8573,VALID,10,VALID,0.486328,
2011-01-03, 01:37:04,VALID,915.602,VALID,0,VALID,96.4743,VALID,0,VALID,19.8198,VALID,10,VALID,0.626953,
2011-01-03, 01:38:04,VALID,915.586,VALID,0,VALID,96.4743,VALID,0,VALID,19.7598,VALID,10,VALID,0.591406,
2011-01-03, 01:39:04,VALID,915.542,VALID,0,VALID,96.4515,VALID,0,VALID,19.7013,VALID,10,VALID,0.605078,
2011-01-03, 01:40:04,VALID,915.515,VALID,0,VALID,96.4362,VALID,0,VALID,19.6623,VALID,10,VALID,0.73125,
2011-01-03, 01:41:04,VALID,915.502,VALID,0,VALID,96.4972,VALID,0,VALID,19.6038,VALID,10,VALID,0.86875,
2011-01-03, 01:42:04,VALID,915.509,VALID,0,VALID,96.5201,VALID,0,VALID,19.5843,VALID,10,VALID,0.717188,
2011-01-03, 01:43:04,VALID,915.522,VALID,0,VALID,96.5887,VALID,0,VALID,19.5843,VALID,10,VALID,0.772656,
2011-01-03, 01:44:04,VALID,915.518,VALID,0,VALID,96.6497,VALID,0,VALID,19.5648,VALID,10,VALID,0.591016,
2011-01-03, 01:45:04,VALID,915.526,VALID,0,VALID,96.6725,VALID,0,VALID,19.5843,VALID,10,VALID,0.429688,
2011-01-03, 01:46:04,VALID,915.547,VALID,0,VALID,96.7183,VALID,0,VALID,19.5648,VALID,10,VALID,0.446484,
2011-01-03, 01:47:04,VALID,915.545,VALID,0,VALID,96.7488,VALID,0,VALID,19.5453,VALID,10,VALID,0.387891,
2011-01-03, 01:48:04,VALID,915.539,VALID,0,VALID,96.7564,VALID,0,VALID,19.5453,VALID,10,VALID,0.589453,
2011-01-03, 01:49:04,VALID,915.522,VALID,0,VALID,96.764,VALID,0,VALID,19.5453,VALID,10,VALID,0.391797,
2011-01-03, 01:50:04,VALID,915.486,VALID,0,VALID,96.7793,VALID,0,VALID,19.5273,VALID,10,VALID,0.516797,
2011-01-03, 01:51:04,VALID,915.467,VALID,0,VALID,96.7869,VALID,0,VALID,19.5273,VALID,10,VALID,0.254297,
2011-01-03, 01:52:04,VALID,915.513,VALID,0,VALID,96.8098,VALID,0,VALID,19.5273,VALID,10,VALID,0.344141,
2011-01-03, 01:53:04,VALID,915.522,VALID,0,VALID,96.7945,VALID,0,VALID,19.5078,VALID,10,VALID,0.227734,
2011-01-03, 01:54:04,VALID,915.536,VALID,0,VALID,96.8174,VALID,0,VALID,19.5078,VALID,10,VALID,0.146484,
2011-01-03, 01:55:04,VALID,915.544,VALID,0,VALID,96.8403,VALID,0,VALID,19.4688,VALID,10,VALID,0.458594,
2011-01-03, 01:56:04,VALID,915.48,VALID,0,VALID,96.8707,VALID,0,VALID,19.4883,VALID,10,VALID,0,
2011-01-03, 01:57:04,VALID,915.437,VALID,0,VALID,96.9012,VALID,0,VALID,19.4673,VALID,10,VALID,0,
2011-01-03, 01:58:04,VALID,915.446,VALID,0,VALID,96.9165,VALID,0,VALID,19.4673,VALID,10,VALID,0,
2011-01-03, 01:59:04,VALID,915.437,VALID,0,VALID,96.9241,VALID,0,VALID,19.5078,VALID,10,VALID,0,
2011-01-03, 02:00:04,VALID,915.414,VALID,0,VALID,96.9622,VALID,0,VALID,19.5273,VALID,10,VALID,0,
2011-01-03, 02:01:04,VALID,915.426,VALID,0,VALID,97.0003,VALID,0,VALID,19.6038,VALID,9,VALID,0.0496094,
2011-01-03, 02:02:04,VALID,915.386,VALID,0,VALID,97.0461,VALID,0,VALID,19.6428,VALID,10,VALID,0,
2011-01-03, 02:03:04,VALID,915.383,VALID,0,VALID,97.0537,VALID,0,VALID,19.6623,VALID,9,VALID,0,
2011-01-03, 02:04:04,VALID,915.338,VALID,0,VALID,96.8707,VALID,0,VALID,19.6248,VALID,9,VALID,0,
2011-01-03, 02:05:04,VALID,915.335,VALID,0,VALID,96.8174,VALID,0,VALID,19.5273,VALID,10,VALID,0.159766,
2011-01-03, 02:06:04,VALID,915.296,VALID,0,VALID,96.6649,VALID,0,VALID,19.3713,VALID,10,VALID,0.319141,
2011-01-03, 02:07:04,VALID,915.267,VALID,0,VALID,96.6573,VALID,0,VALID,19.2738,VALID,10,VALID,0.307813,
2011-01-03, 02:08:04,VALID,915.252,VALID,0,VALID,96.764,VALID,0,VALID,19.2348,VALID,10,VALID,0.246094,
2011-01-03, 02:09:04,VALID,915.267,VALID,0,VALID,96.8784,VALID,0,VALID,19.2738,VALID,10,VALID,0.260938,
2011-01-03, 02:10:04,VALID,915.279,VALID,0,VALID,96.8021,VALID,0,VALID,19.2139,VALID,10,VALID,0.383984,
2011-01-03, 02:11:04,VALID,915.284,VALID,0,VALID,96.7793,VALID,0,VALID,19.1568,VALID,9,VALID,0.213672,
2011-01-03, 02:12:04,VALID,915.297,VALID,0,VALID,96.8479,VALID,0,VALID,19.1373,VALID,10,VALID,0,
2011-01-03, 02:13:04,VALID,915.326,VALID,0,VALID,96.8479,VALID,0,VALID,19.1178,VALID,10,VALID,0,
2011-01-03, 02:14:04,VALID,915.29,VALID,0,VALID,96.8936,VALID,0,VALID,19.1178,VALID,10,VALID,0,
2011-01-03, 02:15:04,VALID,915.304,VALID,0,VALID,96.9165,VALID,0,VALID,19.1193,VALID,9,VALID,0.373437,
2011-01-03, 02:16:04,VALID,915.306,VALID,0,VALID,96.9851,VALID,0,VALID,19.1373,VALID,10,VALID,0.484766,
2011-01-03, 02:17:04,VALID,915.279,VALID,0,VALID,97.0461,VALID,0,VALID,19.1958,VALID,10,VALID,0.667969,
2011-01-03, 02:18:04,VALID,915.287,VALID,0,VALID,97.069,VALID,0,VALID,19.2348,VALID,10,VALID,0.466797,
2011-01-03, 02:19:04,VALID,915.27,VALID,0,VALID,97.0613,VALID,0,VALID,19.2348,VALID,10,VALID,0.184766,
2011-01-03, 02:20:04,VALID,915.296,VALID,0,VALID,97.0766,VALID,0,VALID,19.2543,VALID,10,VALID,0,
2011-01-03, 02:21:04,VALID,915.295,VALID,0,VALID,97.0918,VALID,0,VALID,19.2933,VALID,10,VALID,0,
2011-01-03, 02:22:04,VALID,915.26,VALID,0,VALID,97.0842,VALID,0,VALID,19.3128,VALID,9,VALID,0.212109,
2011-01-03, 02:23:04,VALID,915.256,VALID,0,VALID,97.0385,VALID,0,VALID,19.2738,VALID,10,VALID,0.507422,
2011-01-03, 02:24:04,VALID,915.233,VALID,0,VALID,96.9698,VALID,0,VALID,19.1958,VALID,10,VALID,0.751172,
2011-01-03, 02:25:04,VALID,915.238,VALID,0,VALID,96.9698,VALID,0,VALID,19.1763,VALID,10,VALID,0.433984,
2011-01-03, 02:26:04,VALID,915.23,VALID,0,VALID,96.9927,VALID,0,VALID,19.1373,VALID,10,VALID,0.634766,
2011-01-03, 02:27:04,VALID,915.244,VALID,0,VALID,97.0232,VALID,0,VALID,19.1373,VALID,10,VALID,0.712109,
2011-01-03, 02:28:04,VALID,915.24,VALID,0,VALID,97.069,VALID,0,VALID,19.1568,VALID,10,VALID,0.121484,
2011-01-03, 02:29:04,VALID,915.232,VALID,0,VALID,97.0842,VALID,0,VALID,19.1763,VALID,10,VALID,0,
2011-01-03, 02:30:04,VALID,915.234,VALID,0,VALID,97.0461,VALID,0,VALID,19.1568,VALID,10,VALID,0,
2011-01-03, 02:31:04,VALID,915.224,VALID,0,VALID,97.0232,VALID,0,VALID,19.1178,VALID,10,VALID,0,
2011-01-03, 02:32:04,VALID,915.245,VALID,0,VALID,97.0003,VALID,0,VALID,19.0788,VALID,10,VALID,0.299609,
2011-01-03, 02:33:04,VALID,915.222,VALID,0,VALID,97.0385,VALID,0,VALID,19.0788,VALID,10,VALID,0.346875,
2011-01-03, 02:34:04,VALID,915.256,VALID,0,VALID,97.0842,VALID,0,VALID,19.0998,VALID,10,VALID,0.716016,
2011-01-03, 02:35:04,VALID,915.227,VALID,0,VALID,97.0766,VALID,0,VALID,19.0593,VALID,10,VALID,0.905859,
2011-01-03, 02:36:04,VALID,915.228,VALID,0,VALID,97.0461,VALID,0,VALID,19.0008,VALID,10,VALID,0.78125,
2011-01-03, 02:37:04,VALID,915.246,VALID,0,VALID,97.0842,VALID,0,VALID,19.0008,VALID,47,VALID,0.946875,
2011-01-03, 02:38:04,VALID,915.27,VALID,0,VALID,97.0994,VALID,0,VALID,19.0023,VALID,47,VALID,0.540625,
2011-01-03, 02:39:04,VALID,915.244,VALID,0,VALID,97.1147,VALID,0,VALID,18.9814,VALID,46,VALID,0.517969,
2011-01-03, 02:40:04,VALID,915.263,VALID,0,VALID,97.1681,VALID,0,VALID,19.0008,VALID,47,VALID,0.153125,
2011-01-03, 02:41:04,VALID,915.252,VALID,0,VALID,97.1833,VALID,0,VALID,19.0398,VALID,47,VALID,0,
2011-01-03, 02:42:04,VALID,915.28,VALID,0,VALID,97.1909,VALID,0,VALID,19.0608,VALID,47,VALID,0,
2011-01-03, 02:43:04,VALID,915.245,VALID,0,VALID,97.229,VALID,0,VALID,19.0788,VALID,47,VALID,0,
2011-01-03, 02:44:04,VALID,915.188,VALID,0,VALID,97.2367,VALID,0,VALID,19.1178,VALID,47,VALID,0,
2011-01-03, 02:45:04,VALID,915.221,VALID,0,VALID,97.2443,VALID,0,VALID,19.1568,VALID,47,VALID,0,
2011-01-03, 02:46:04,VALID,915.203,VALID,0,VALID,97.2443,VALID,0,VALID,19.1958,VALID,47,VALID,0.316016,
2011-01-03, 02:47:04,VALID,915.164,VALID,0,VALID,97.2443,VALID,0,VALID,19.2153,VALID,47,VALID,0.342578,
2011-01-03, 02:48:04,VALID,915.179,VALID,0,VALID,97.2138,VALID,0,VALID,19.2348,VALID,47,VALID,0.198828,
2011-01-03, 02:49:04,VALID,915.194,VALID,0,VALID,97.2062,VALID,0,VALID,19.1958,VALID,47,VALID,0.194531,
2011-01-03, 02:50:04,VALID,915.15,VALID,0,VALID,97.2214,VALID,0,VALID,19.1958,VALID,47,VALID,0.00351562,
2011-01-03, 02:51:04,VALID,915.178,VALID,0,VALID,97.2214,VALID,0,VALID,19.2153,VALID,47,VALID,0.358203,
2011-01-03, 02:52:04,VALID,915.145,VALID,0,VALID,97.2443,VALID,0,VALID,19.2153,VALID,47,VALID,0.704297,
2011-01-03, 02:53:04,VALID,915.13,VALID,0,VALID,97.229,VALID,0,VALID,19.2153,VALID,47,VALID,0.564844,
2011-01-03, 02:54:04,VALID,915.142,VALID,0,VALID,97.2367,VALID,0,VALID,19.2168,VALID,47,VALID,0.672656,
2011-01-03, 02:55:04,VALID,915.106,VALID,0,VALID,97.229,VALID,0,VALID,19.1958,VALID,47,VALID,0.611328,
2011-01-03, 02:56:04,VALID,915.134,VALID,0,VALID,97.2595,VALID,0,VALID,19.2153,VALID,47,VALID,0.55,
2011-01-03, 02:57:04,VALID,915.142,VALID,0,VALID,97.2672,VALID,0,VALID,19.2153,VALID,47,VALID,0.346094,
2011-01-03, 02:58:04,VALID,915.107,VALID,0,VALID,97.229,VALID,0,VALID,19.2153,VALID,47,VALID,0.268359,
2011-01-03, 02:59:04,VALID,915.074,VALID,0,VALID,97.2672,VALID,0,VALID,19.2153,VALID,47,VALID,0.664844,
2011-01-03, 03:00:04,VALID,915.087,VALID,0,VALID,97.2519,VALID,0,VALID,19.2153,VALID,47,VALID,0.578125,
2011-01-03, 03:01:04,VALID,915.07,VALID,0,VALID,97.2748,VALID,0,VALID,19.2153,VALID,47,VALID,0.66875,
2011-01-03, 03:02:04,VALID,915.057,VALID,0,VALID,97.229,VALID,0,VALID,19.1763,VALID,47,VALID,0.866406,
2011-01-03, 03:03:04,VALID,915.07,VALID,0,VALID,97.1986,VALID,0,VALID,19.1178,VALID,47,VALID,1.2168,
2011-01-03, 03:04:04,VALID,915.099,VALID,0,VALID,97.229,VALID,0,VALID,19.0774,VALID,47,VALID,0.628516,
2011-01-03, 03:05:04,VALID,915.101,VALID,0,VALID,97.2519,VALID,0,VALID,19.0983,VALID,47,VALID,0.642969,
2011-01-03, 03:06:04,VALID,915.1,VALID,0,VALID,97.2748,VALID,0,VALID,19.1178,VALID,47,VALID,0.709375,
2011-01-03, 03:07:04,VALID,915.093,VALID,0,VALID,97.3053,VALID,0,VALID,19.1373,VALID,47,VALID,0.746094,
2011-01-03, 03:08:04,VALID,915.107,VALID,0,VALID,97.3129,VALID,0,VALID,19.1373,VALID,47,VALID,0.482031,
2011-01-03, 03:09:04,VALID,915.115,VALID,0,VALID,97.3205,VALID,0,VALID,19.1164,VALID,47,VALID,0.541797,
2011-01-03, 03:10:04,VALID,915.115,VALID,0,VALID,97.3053,VALID,0,VALID,19.1178,VALID,47,VALID,1.03867,
2011-01-03, 03:11:04,VALID,915.106,VALID,0,VALID,97.3281,VALID,0,VALID,19.1568,VALID,47,VALID,1.24336,
2011-01-03, 03:12:04,VALID,915.104,VALID,0,VALID,97.3434,VALID,0,VALID,19.1568,VALID,47,VALID,0.787109,
2011-01-03, 03:13:04,VALID,915.086,VALID,0,VALID,97.3663,VALID,0,VALID,19.1763,VALID,47,VALID,0.859375,
2011-01-03, 03:14:04,VALID,915.099,VALID,0,VALID,97.3586,VALID,0,VALID,19.1958,VALID,47,VALID,0.947656,
2011-01-03, 03:15:04,VALID,915.083,VALID,0,VALID,97.351,VALID,0,VALID,19.2363,VALID,47,VALID,0.974609,
2011-01-03, 03:16:04,VALID,915.119,VALID,0,VALID,97.3663,VALID,0,VALID,19.2348,VALID,47,VALID,0.657422,
2011-01-03, 03:17:04,VALID,915.087,VALID,0,VALID,97.3663,VALID,0,VALID,19.2543,VALID,47,VALID,1.05898,
2011-01-03, 03:18:04,VALID,915.044,VALID,0,VALID,97.3663,VALID,0,VALID,19.2738,VALID,47,VALID,0.584375,
2011-01-03, 03:19:04,VALID,915.051,VALID,0,VALID,97.3739,VALID,0,VALID,19.3128,VALID,100,VALID,0.845312,
2011-01-03, 03:20:04,VALID,915.046,VALID,0,VALID,97.3663,VALID,0,VALID,19.3323,VALID,100,VALID,0.645312,
2011-01-03, 03:21:04,VALID,915.056,VALID,0,VALID,97.3815,VALID,0,VALID,19.3713,VALID,100,VALID,0.508203,
2011-01-03, 03:22:04,VALID,915.016,VALID,0,VALID,97.3815,VALID,0,VALID,19.4103,VALID,100,VALID,0.4125,
2011-01-03, 03:23:04,VALID,914.981,VALID,0,VALID,97.351,VALID,0,VALID,19.4298,VALID,100,VALID,0.121484,
2011-01-03, 03:24:04,VALID,914.972,VALID,0,VALID,97.3663,VALID,0,VALID,19.4298,VALID,100,VALID,0,
2011-01-03, 03:25:04,VALID,914.931,VALID,0,VALID,97.351,VALID,0,VALID,19.4298,VALID,100,VALID,0.494141,
2011-01-03, 03:26:04,VALID,914.891,VALID,0,VALID,97.3434,VALID,0,VALID,19.4088,VALID,100,VALID,0.324609,
2011-01-03, 03:27:04,VALID,914.877,VALID,0,VALID,97.3815,VALID,0,VALID,19.4313,VALID,100,VALID,0.294922,
2011-01-03, 03:28:04,VALID,914.807,VALID,0,VALID,97.351,VALID,0,VALID,19.4298,VALID,100,VALID,0.272656,
2011-01-03, 03:29:04,VALID,914.825,VALID,0,VALID,97.351,VALID,0,VALID,19.4493,VALID,100,VALID,0.192969,
2011-01-03, 03:30:04,VALID,914.795,VALID,0,VALID,97.3434,VALID,0,VALID,19.4493,VALID,100,VALID,0,
2011-01-03, 03:31:04,VALID,914.783,VALID,0,VALID,97.3739,VALID,0,VALID,19.4298,VALID,100,VALID,0,
2011-01-03, 03:32:04,VALID,914.788,VALID,0,VALID,97.351,VALID,0,VALID,19.4493,VALID,100,VALID,0.333203,
2011-01-03, 03:33:04,VALID,914.754,VALID,0,VALID,97.351,VALID,0,VALID,19.4493,VALID,100,VALID,0.407422,
2011-01-03, 03:34:04,VALID,914.736,VALID,0,VALID,97.351,VALID,0,VALID,19.4703,VALID,100,VALID,0.167187,
2011-01-03, 03:35:04,VALID,914.716,VALID,0,VALID,97.3739,VALID,0,VALID,19.4688,VALID,100,VALID,0.308594,
2011-01-03, 03:36:04,VALID,914.702,VALID,0,VALID,97.3586,VALID,0,VALID,19.4688,VALID,100,VALID,0.495313,
2011-01-03, 03:37:04,VALID,914.667,VALID,0,VALID,97.3586,VALID,0,VALID,19.4493,VALID,100,VALID,0.367188,
2011-01-03, 03:38:04,VALID,914.684,VALID,0,VALID,97.3205,VALID,0,VALID,19.3728,VALID,100,VALID,0.515234,
2011-01-03, 03:39:04,VALID,914.665,VALID,0,VALID,97.2977,VALID,0,VALID,19.2738,VALID,100,VALID,0.853125,
2011-01-03, 03:40:04,VALID,914.618,VALID,0,VALID,97.351,VALID,0,VALID,19.2933,VALID,100,VALID,0.464063,
2011-01-03, 03:41:05,VALID,914.676,VALID,0,VALID,97.351,VALID,0.107441,VALID,19.2933,VALID,100,VALID,0.469922,
2011-01-03, 03:42:05,VALID,914.688,VALID,0,VALID,97.3739,VALID,0,VALID,19.2738,VALID,100,VALID,0.570313,
2011-01-03, 03:43:05,VALID,914.645,VALID,0,VALID,97.3586,VALID,0,VALID,19.2543,VALID,100,VALID,0.579687,
2011-01-03, 03:44:05,VALID,914.652,VALID,0,VALID,97.3663,VALID,0,VALID,19.2753,VALID,100,VALID,0.838672,
2011-01-03, 03:45:04,VALID,914.674,VALID,0,VALID,97.3739,VALID,0,VALID,19.2348,VALID,100,VALID,0.492969,
2011-01-03, 03:46:05,VALID,914.716,VALID,0,VALID,97.3815,VALID,0,VALID,19.2348,VALID,100,VALID,0.364453,
2011-01-03, 03:47:05,VALID,914.673,VALID,0,VALID,97.3739,VALID,0,VALID,19.2558,VALID,100,VALID,0.615234,
2011-01-03, 03:48:05,VALID,914.71,VALID,0,VALID,97.3968,VALID,0,VALID,19.2753,VALID,100,VALID,0.790625,